Location: Fauquembergues
(50.6005°N, 2.0987°E)
Time: 04:43:14
(UTC+00:00)

Cosmos 468 Rocket - Pass Details

Date: 14 July 2020
Orbit: 743 x 780 km, 74.0° (Epoch: 06 August)

Event Time Altitude Azimuth Distance (km) Brightness Sun altitude
Rises 02:32:05 0° 335° (NNW) 3,266 7.7 -10.1°
Reaches altitude 10° 02:34:28 10° 335° (NNW) 2,338 6.9 -9.9°
Maximum altitude 02:39:48 88° 247° (WSW) 788 4.1 -9.4°
Drops below altitude 10° 02:45:07 10° 159° (SSE) 2,330 6.2 -8.9°
Sets 02:47:30 0° 159° (SSE) 3,253 7.0 -8.7°
